{"data":{"norad_id":43013,"epoch":"2026-05-25T03:55:44.736672Z","epoch_age_seconds":67724,"freshness":"FRESH","line1":"1 43013U 17073A   26145.16371223  .00000056  00000+0  47690-4 0  9992","line2":"2 43013  98.7766  84.8319 0001074  39.6444 320.4810 14.19506908441203","mean_motion":14.19506908,"eccentricity":0.0001074,"inclination_deg":98.7766,"raan_deg":84.8319,"arg_perigee_deg":39.6444,"mean_anomaly_deg":320.481,"bstar":4.769e-5,"rev_number":44120,"period_min":101.44367680668,"perigee_km":826.24703838682,"apogee_km":827.7947062978,"semimajor_km":7205.1578723423,"source":"CELESTRAK","updated_at":"2026-05-25T13:38:12.248617Z"}}